Dayton, OH

7:41 AM EDT on May 23, 2017 (GMT -0400)
Cox-Dayton International

Weather History for KDAY - May, 2014

Change the Weather History Date:

Friday, May 2, 2014

  Actual Average Record
Temperature  
Mean Temperature 52 °F 57 °F  
Max Temperature 57 °F 68 °F 87 °F (1951)
Min Temperature 47 °F 47 °F 31 °F (1961)
Degree Days  
Heating Degree Days 13 8  
Month to date heating degree days 27 17  
Since 1 July heating degree days 5835 5468  
Cooling Degree Days 0 1  
Month to date cooling degree days 0 2  
Year to date cooling degree days 8 12  
Growing Degree Days 2 (Base 50)    
Moisture  
Dew Point 40 °F    
Average Humidity 68    
Maximum Humidity 77    
Minimum Humidity 59    
Precipitation  
Precipitation 0.00 in 0.14 in 2.61 in (1935)
Month to date precipitation 0.00 0.29  
Year to date precipitation 13.40 12.67  
Snow  
Snow 0.00 in 0.00 in 0.50 in (1897)
Month to date snowfall 0.0 0.0  
Since 1 July snowfall 53.6 23.3  
Snow Depth 0.00 in    
Sea Level Pressure  
Sea Level Pressure 29.89 in    
Wind  
Wind Speed 12 mph (WSW)    
Max Wind Speed 20 mph    
Max Gust Speed 23 mph    
Visibility 10 miles    
Events      
T = Trace of Precipitation, MM = Missing Value Source: NWS Daily Summary

Daily Weather History Graph

Daily Weather History Graph

Search for Another Location

Airport or City:

Trip Planner

Search our weather history database for the weather conditions in past years. The results will help you decide how hot, cold, wet, or windy it might be!

Date:

Astronomy

May. 02, 2014 Rise Set
Actual Time 6:35 AM EDT 8:32 PM EDT
Civil Twilight 6:06 AM EDT 9:01 PM EDT
Nautical Twilight 5:30 AM EDT 9:37 PM EDT
Astronomical Twilight 4:52 AM EDT 10:16 PM EDT
Moon 9:12 AM EDT (5/2) 11:54 PM EDT (5/2)
Length of Visible Light 14h 55m
Length of Day
13h 56m
Waxing Crescent, 12% of the Moon is Illuminated
May 2
Waxing Crescent
May 6
First Quarter
May 14
Full
May 21
Last Quarter
May 28
New

Hourly Weather History & Observations

Time (EDT) Temp. Dew Point Humidity Pressure Visibility Wind Dir Wind Speed Gust Speed Precip Events Conditions
12:56 AM 48.9 °F 37.0 °F 64% 29.89 in 10.0 mi WSW 15.0 mph - N/A   Mostly Cloudy
1:56 AM 48.0 °F 37.9 °F 68% 29.89 in 10.0 mi WSW 13.8 mph - N/A   Overcast
2:56 AM 48.0 °F 39.0 °F 71% 29.87 in 10.0 mi WSW 13.8 mph - N/A   Overcast
3:56 AM 48.0 °F 39.0 °F 71% 29.87 in 10.0 mi WSW 10.4 mph - N/A   Overcast
4:56 AM 46.9 °F 39.9 °F 77% 29.87 in 10.0 mi WSW 10.4 mph - N/A   Overcast
5:56 AM 46.9 °F 39.9 °F 77% 29.86 in 10.0 mi WSW 9.2 mph - N/A   Overcast
6:56 AM 46.9 °F 39.9 °F 77% 29.87 in 10.0 mi WSW 10.4 mph - N/A   Overcast
7:23 AM 48.2 °F 39.2 °F 71% 29.88 in 10.0 mi WSW 9.2 mph - N/A   Overcast
7:50 AM 48.2 °F 39.2 °F 71% 29.88 in 10.0 mi WSW 11.5 mph - N/A   Mostly Cloudy
7:56 AM 48.0 °F 41.0 °F 77% 29.88 in 10.0 mi SW 9.2 mph - N/A   Mostly Cloudy
8:56 AM 50.0 °F 42.1 °F 74% 29.90 in 10.0 mi WSW 10.4 mph - N/A   Mostly Cloudy
9:56 AM 51.1 °F 41.0 °F 68% 29.90 in 10.0 mi WSW 12.7 mph 19.6 mph N/A   Mostly Cloudy
10:56 AM 51.1 °F 41.0 °F 68% 29.91 in 10.0 mi WSW 12.7 mph - N/A   Overcast
11:56 AM 52.0 °F 41.0 °F 66% 29.92 in 10.0 mi West 11.5 mph - N/A   Overcast
12:44 PM 53.6 °F 41.0 °F 62% 29.90 in 10.0 mi WSW 11.5 mph - N/A   Overcast
12:56 PM 51.8 °F 39.2 °F 62% 29.90 in 10.0 mi WSW 13.8 mph - N/A   Overcast
1:08 PM 53.6 °F 41.0 °F 62% 29.90 in 10.0 mi SW 13.8 mph - N/A   Overcast
1:46 PM 53.6 °F 42.8 °F 67% 29.89 in 10.0 mi West 13.8 mph - N/A   Overcast
1:56 PM 53.1 °F 41.0 °F 64% 29.90 in 10.0 mi WSW 17.3 mph 20.7 mph N/A   Overcast
2:56 PM 55.0 °F 41.0 °F 59% 29.88 in 10.0 mi WSW 12.7 mph - N/A   Mostly Cloudy
3:56 PM 55.0 °F 41.0 °F 59% 29.87 in 10.0 mi WSW 13.8 mph - N/A   Overcast
4:56 PM 55.0 °F 41.0 °F 59% 29.87 in 10.0 mi West 13.8 mph - N/A   Overcast
5:56 PM 55.9 °F 41.0 °F 57% 29.87 in 10.0 mi West 16.1 mph - N/A   Overcast
6:56 PM 55.0 °F 41.0 °F 59% 29.87 in 10.0 mi West 13.8 mph - N/A   Overcast
7:56 PM 54.0 °F 41.0 °F 62% 29.88 in 10.0 mi West 10.4 mph - N/A   Overcast
8:56 PM 53.1 °F 41.0 °F 64% 29.88 in 10.0 mi West 9.2 mph - N/A   Overcast
9:56 PM 50.0 °F 41.0 °F 71% 29.89 in 10.0 mi WSW 8.1 mph - N/A   Overcast
10:56 PM 50.0 °F 41.0 °F 71% 29.90 in 10.0 mi WSW 6.9 mph - N/A   Overcast
11:56 PM 51.1 °F 41.0 °F 68% 29.89 in 10.0 mi SW 8.1 mph - N/A   Overcast